Location: Ottawa
(45.4170°N, 75.7000°W)
Time: 10:10:47
(UTC-04:00)

ISS - Visible Passes

Search period start: 23 March 2017 00:00
Search period end: 02 April 2017 00:00
Orbit: 399 x 409 km, 51.6° (Epoch: 23 March)

Date Brightness Start Highest point End Pass type
(mag) Time Alt. Az. Time Alt. Az. Time Alt. Az.
23 Mar -2.5 05:40:53 24° SSW 05:40:53 24° SSW 05:43:19 10° SSE visible
26 Mar -1.4 21:17:51 10° SSW 21:18:26 14° SSW 21:18:26 14° SSW visible
27 Mar -2.5 20:26:07 10° S 20:28:41 21° SE 20:29:21 20° ESE visible
27 Mar -0.9 22:01:40 10° WSW 22:02:04 13° WSW 22:02:04 13° WSW visible
28 Mar -4.0 21:09:15 10° SW 21:12:31 81° SSE 21:12:42 75° E visible
29 Mar -3.5 20:17:03 10° SW 20:20:10 45° SE 20:23:05 12° ENE visible
29 Mar -1.9 21:53:36 10° W 21:55:46 31° WNW 21:55:46 31° WNW visible
30 Mar -3.2 21:00:59 10° WSW 21:04:11 54° NNW 21:05:56 24° NE visible
30 Mar -0.4 22:38:16 10° WNW 22:38:36 12° WNW 22:38:36 12° WNW visible
31 Mar -3.8 20:08:28 10° WSW 20:11:43 86° NNW 20:15:01 10° ENE visible
31 Mar -2.1 21:45:35 10° WNW 21:48:30 29° N 21:48:35 29° N visible
01 Apr -2.4 20:52:52 10° W 20:55:55 35° NNW 20:58:26 14° NE visible
01 Apr -0.8 22:30:06 10° NW 22:31:06 16° NW 22:31:06 16° NW visible
